Location: ????????
(55.8351°N, 38.7040°E)
Time: 10:09:05
(UTC+00:00)

NOSS 3-1 (A) - Pass Details

Date: 14 April 2024
Orbit: 660 x 1550 km, 63.4° (Epoch: 15 May)

Event Time Altitude Azimuth Distance (km) Brightness Sun altitude
Rises 01:26:37 0° 307° (NW) 3,659 6.3 -7.9°
Reaches altitude 10° 01:28:57 10° 307° (NW) 2,824 5.7 -7.6°
Maximum altitude 01:35:47 89° 220° (SW) 1,208 4.0 -6.8°
Drops below altitude 10° 01:44:16 10° 132° (SE) 3,467 6.7 -5.7°
Sets 01:47:25 0° 132° (SE) 4,536 7.3 -5.3°
